EW8241 Weather Reports


time (UTC)temp
C
wind
direction
speed
KPH
gust
KPH
rain 1hr
cm
rain 24hr
cm
rain mn
cm
humidity
%
barometer
mb
20260507141516 19 0.0 8.0 0.00 0.00 0.00 46 1009.5
20260507140516 19 0.0 1.6 0.00 0.00 0.00 45 1009.5
20260507135516 18 0.0 3.2 0.00 0.00 0.00 45 1009.6
20260507134515 17 0.0 9.7 0.00 0.00 0.00 48 1009.7
20260507133515 16 203 1.6 14.5 0.00 0.00 0.00 48 1009.8
20260507132515 16 113 6.4 25.7 0.00 0.00 0.00 47 1009.7
20260507131516 19 0.0 1.6 0.00 0.00 0.00 45 1009.8
20260507130515 20 0.0 0.0 0.00 0.00 0.00 45 1009.9
20260507125515 21 0.0 0.0 0.00 0.00 0.00 41 1009.8
20260507124556 21 0.0 0.0 0.00 0.00 0.00 40 1010.0
20260507123515 21 0.0 0.0 0.00 0.00 0.00 41 1010.1
20260507122515 21 0.0 0.0 0.00 0.00 0.00 42 1010.2
20260507121516 21 0.0 0.0 0.00 0.00 0.00 42 1010.3
20260507120515 20 0.0 0.0 0.00 0.00 0.00 43 1010.5
20260507115515 20 0.0 0.0 0.00 0.00 0.00 45 1010.5
20260507114556 19 0.0 0.0 0.00 0.00 0.00 48 1010.7
20260507113536 19 0.0 0.0 0.00 0.00 0.00 46 1010.6
20260507112517 20 0.0 0.0 0.00 0.00 0.00 46 1010.8
20260507111537 19 0.0 0.0 0.00 0.00 0.00 48 1010.9
20260507110517 20 0.0 0.0 0.00 0.00 0.00 47 1011.1
20260507105517 19 0.0 0.0 0.00 0.00 0.00 47 1011.0
20260507104538 18 0.0 0.0 0.00 0.00 0.00 50 1011.0
20260507103537 19 0.0 0.0 0.00 0.00 0.00 48 1011.2
20260507102537 20 0.0 0.0 0.00 0.00 0.00 48 1011.3
20260507101517 19 0.0 0.0 0.00 0.00 0.00 50 1011.3
20260507100517 18 0.0 1.6 0.00 0.00 0.00 51 1011.3
20260507095517 19 0.0 0.0 0.00 0.00 0.00 50 1011.4
20260507094517 17 0.0 0.0 0.00 0.00 0.00 53 1011.3
20260507093517 17 0.0 1.6 0.00 0.00 0.00 52 1011.1
20260507092517 17 0.0 0.0 0.00 0.00 0.00 53 1011.0
20260507091517 17 0.0 0.0 0.00 0.00 0.00 52 1011.0
20260507090537 17 0.0 0.0 0.00 0.00 0.00 52 1011.1
20260507085517 17 0.0 0.0 0.00 0.00 0.00 51 1011.2
20260507084517 17 0.0 0.0 0.00 0.00 0.00 50 1011.3
20260507083517 17 0.0 0.0 0.00 0.00 0.00 52 1011.2
20260507082517 16 0.0 0.0 0.00 0.00 0.00 54 1011.2
20260507081517 16 0.0 0.0 0.00 0.00 0.00 53 1011.1
20260507080517 15 0.0 0.0 0.00 0.00 0.00 61 1011.0
20260507075517 15 0.0 0.0 0.00 0.00 0.00 60 1010.9
20260507074517 15 0.0 0.0 0.00 0.00 0.00 59 1010.9
20260507073517 15 0.0 0.0 0.00 0.00 0.00 58 1011.0
20260507072517 15 0.0 0.0 0.00 0.00 0.00 59 1011.0
20260507071517 14 0.0 0.0 0.00 0.00 0.00 62 1010.8
20260507070517 14 0.0 0.0 0.00 0.00 0.00 61 1010.8
20260507065517 14 0.0 0.0 0.00 0.00 0.00 61 1010.8
20260507064517 14 0.0 0.0 0.00 0.00 0.00 61 1010.7
20260507063517 14 0.0 0.0 0.00 0.00 0.00 62 1010.7
20260507062517 13 0.0 0.0 0.00 0.00 0.00 64 1010.4
20260507061517 13 0.0 0.0 0.00 0.00 0.00 67 1010.4
20260507060517 12 0.0 0.0 0.00 0.00 0.00 69 1010.2
20260507055517 12 0.0 0.0 0.00 0.00 0.00 69 1010.1
20260507054517 11 0.0 0.0 0.00 0.00 0.00 70 1010.0
20260507053517 11 0.0 0.0 0.00 0.00 0.00 71 1010.1
20260507052517 11 0.0 0.0 0.00 0.00 0.00 71 1010.0
20260507051517 11 0.0 0.0 0.00 0.00 0.00 70 1009.7
20260507050517 11 0.0 0.0 0.00 0.00 0.00 70 1009.7
20260507045517 12 0.0 0.0 0.00 0.00 0.00 69 1009.8
20260507044517 12 0.0 0.0 0.00 0.00 0.00 69 1009.8
20260507043537 12 0.0 0.0 0.00 0.00 0.00 68 1009.8
20260507042537 12 0.0 0.0 0.00 0.00 0.00 68 1009.8
20260507041517 12 0.0 0.0 0.00 0.00 0.00 67 1009.8
20260507040517 12 0.0 0.0 0.00 0.00 0.00 67 1009.7
20260507035517 12 0.0 0.0 0.00 0.00 0.00 66 1009.6
20260507034517 13 0.0 0.0 0.00 0.00 0.00 66 1009.7
20260507033537 13 0.0 0.0 0.00 0.00 0.00 65 1009.8
20260507032517 13 0.0 0.0 0.00 0.00 0.00 63 1009.7
20260507031517 13 0.0 0.0 0.00 0.00 0.00 61 1009.6
20260507030517 13 0.0 0.0 0.00 0.00 0.00 60 1009.7
20260507025517 14 0.0 0.0 0.00 0.00 0.00 59 1009.7
20260507024517 14 0.0 0.0 0.00 0.00 0.00 58 1009.8
20260507023537 15 0.0 0.0 0.00 0.00 0.00 56 1009.9
20260507022517 15 0.0 0.0 0.00 0.00 0.00 56 1009.9
20260507021537 15 0.0 0.0 0.00 0.00 0.00 55 1009.9
20260507020516 15 0.0 0.0 0.00 0.00 0.00 54 1010.0
20260507015517 15 0.0 0.0 0.00 0.00 0.00 55 1010.0
20260507014517 15 0.0 0.0 0.00 0.00 0.00 54 1010.0
20260507013536 15 0.0 0.0 0.00 0.00 0.00 55 1010.0
20260507012517 15 0.0 0.0 0.00 0.00 0.00 54 1010.1
20260507011516 15 0.0 0.0 0.00 0.00 0.00 53 1010.2
20260507010517 15 0.0 0.0 0.00 0.00 0.00 52 1010.1
20260507005516 15 0.0 0.0 0.00 0.00 0.00 52 1010.3
20260507004537 15 0.0 1.6 0.00 0.00 0.00 52 1010.4
20260507003517 16 0.0 3.2 0.00 0.00 0.00 49 1010.3
20260507002556 16 0.0 0.0 0.00 0.00 0.00 45 1010.2
20260507001517 16 0.0 6.4 0.00 0.00 0.00 43 1010.3
20260507000536 16 0.0 0.0 0.00 0.00 0.00 42 1010.4
20260506235516 16 0.0 0.0 0.00 0.00 0.00 43 1010.4
20260506234517 17 0.0 0.0 0.00 0.00 0.00 44 1010.3
20260506233516 17 0.0 0.0 0.00 0.00 0.00 44 1010.3
20260506232517 17 0.0 0.0 0.00 0.00 0.00 43 1010.2
20260506231517 16 0.0 0.0 0.00 0.00 0.00 43 1010.0
20260506230516 16 0.0 0.0 0.00 0.00 0.00 43 1010.0
20260506225516 16 0.0 0.0 0.00 0.00 0.00 42 1010.0
20260506224517 17 0.0 0.0 0.00 0.00 0.00 42 1010.1
20260506223516 17 0.0 0.0 0.00 0.00 0.00 41 1010.0
20260506222516 17 0.0 0.0 0.00 0.00 0.00 40 1009.9
20260506221517 18 0.0 0.0 0.00 0.00 0.00 38 1010.0
20260506220537 18 0.0 0.0 0.00 0.00 0.00 36 1010.0
20260506215516 17 0.0 0.0 0.00 0.00 0.00 36 1009.9
20260506214516 17 0.0 0.0 0.00 0.00 0.00 36 1010.0
20260506213516 17 0.0 0.0 0.00 0.00 0.00 35 1009.9
20260506212516 17 0.0 0.0 0.00 0.00 0.00 36 1009.9
20260506211516 17 0.0 0.0 0.00 0.00 0.00 34 1009.9
20260506210516 17 0.0 0.0 0.00 0.00 0.00 36 1009.6
20260506205516 17 0.0 0.0 0.00 0.00 0.00 36 1009.5
20260506204516 17 0.0 0.0 0.00 0.00 0.00 35 1009.4
20260506203516 17 0.0 0.0 0.00 0.00 0.00 35 1009.4
20260506202516 17 0.0 0.0 0.00 0.00 0.00 35 1009.4
20260506201516 17 0.0 0.0 0.00 0.00 0.00 35 1009.2
20260506200516 17 0.0 0.0 0.00 0.00 0.00 35 1009.2
20260506195516 17 0.0 0.0 0.00 0.00 0.00 35 1009.1
20260506194516 17 0.0 0.0 0.00 0.00 0.00 35 1009.0
20260506193516 18 0.0 0.0 0.00 0.00 0.00 36 1008.9
20260506192516 18 0.0 0.0 0.00 0.00 0.00 37 1008.9
20260506191516 18 0.0 0.0 0.00 0.00 0.00 37 1008.8
20260506190516 19 0.0 0.0 0.00 0.00 0.00 34 1008.8
20260506185516 20 0.0 0.0 0.00 0.00 0.00 32 1008.7
20260506184536 20 0.0 0.0 0.00 0.00 0.00 31 1008.7
20260506183516 20 0.0 0.0 0.00 0.00 0.00 32 1008.8
20260506182516 20 0.0 0.0 0.00 0.00 0.00 32 1008.4
20260506181516 21 0.0 0.0 0.00 0.00 0.00 32 1008.6
20260506180536 21 0.0 0.0 0.00 0.00 0.00 31 1008.6
20260506175516 21 0.0 0.0 0.00 0.00 0.00 32 1008.5
20260506174516 21 0.0 1.6 0.00 0.00 0.00 31 1008.5
20260506173516 21 0.0 1.6 0.00 0.00 0.00 31 1008.6
20260506172516 21 0.0 0.0 0.00 0.00 0.00 31 1008.7
20260506171516 21 0.0 0.0 0.00 0.00 0.00 31 1008.7
20260506170516 22 0.0 0.0 0.00 0.00 0.00 29 1008.8
20260506165516 22 0.0 1.6 0.00 0.00 0.00 30 1008.9
20260506164516 22 0.0 0.0 0.00 0.00 0.00 30 1008.9
20260506163516 22 0.0 0.0 0.00 0.00 0.00 30 1008.9
20260506162536 22 0.0 1.6 0.00 0.00 0.00 30 1009.0
20260506161516 22 0.0 0.0 0.00 0.00 0.00 29 1009.0
20260506160516 23 0.0 1.6 0.00 0.00 0.00 29 1009.1
20260506155516 23 0.0 0.0 0.00 0.00 0.00 29 1009.0
20260506154516 23 0.0 3.2 0.00 0.00 0.00 30 1009.2
20260506153516 22 0.0 0.0 0.00 0.00 0.00 30 1009.1
20260506152516 22 0.0 0.0 0.00 0.00 0.00 30 1009.3
20260506151516 23 0.0 0.0 0.00 0.00 0.00 29 1009.3
20260506150516 23 0.0 0.0 0.00 0.00 0.00 30 1009.5
20260506145516 22 0.0 0.0 0.00 0.00 0.00 32 1009.6
20260506144516 22 0.0 0.0 0.00 0.00 0.00 31 1009.6
20260506143516 22 0.0 1.6 0.00 0.00 0.00 30 1009.8
20260506142516 23 0.0 0.0 0.00 0.00 0.00 30 1010.1